Regional Weather Roundup
Issued by NWS

Home | Current Version | Previous Version | Graphics & Text | Print | Product List | Glossary On
Versions: 1 2 3 4 5 6 7 8 9 10 11 12 13 14 15 16 17 18 19 20 21 22 23 24 25 26 27 28 29 30 31 32 33 34 35 36 37 38 39 40 41 42 43 44 45 46 47 48 49 50
000
ASUS43 KIND 190409
RWRIN

WEATHER ROUNDUP FOR INDIANA
NATIONAL WEATHER SERVICE INDIANAPOLIS IN
1200 AM EDT SUN APR 19 2015

NOTE: "FAIR" INDICATES FEW OR NO CLOUDS BELOW 12,000 FEET WITH NO
SIGNIFICANT WEATHER AND/OR OBSTRUCTIONS TO VISIBILITY.

* - STATION DOES NOT REPORT WEATHER SUCH AS PRECIPITATION OR FOG.

+ - STATION NOT QUALITY CONTROLLED BY THE NATIONAL WEATHER SERVICE.
    USE DATA WITH CAUTION...ESPECIALLY DEWPOINT AND RELATIVE
    HUMIDITY OBSERVATIONS.

INZ001>003-010>013-019-020-190500-
NORTHWEST INDIANA

CITY           SKY/WX    TMP DP  RH WIND       PRES   REMARKS
GARY /AIRPORT/ CLOUDY    47  38  71 CALM      30.00F
KNOX *+        CLOUDY    61 N/A N/A E14G20    30.00F
MICHIGAN CITY+ CLOUDY    59  23  25 E8G17     30.02S
MONTICELLO +   CLOUDY    61  44  53 E13G21    29.97F
RENSSELAER +   CLOUDY    59  45  58 E16       29.97F
VALPARAISO     CLOUDY    60  27  28 E16G25    30.00F

$$

LMZ046-743>745-190500-
SOUTHERN LAKE MICHIGAN

STATION/POSITION TIME  TEMP WIND        PRES
                       AIR  DIR/SP/G
                 (UTC) (F)  (DEG/KT/KT) (MB)
BURNS HARBOR     0400   44   60/  5/  6 1016.3F
MICHIGAN CITY    0400   51   60/  6/  8   N/A
4NW MICH CITY    0400   46  120/  4/  6   N/A

$$

INZ004-005-014>016-021>024-190500-
NORTH CENTRAL INDIANA

CITY           SKY/WX    TMP DP  RH WIND       PRES   REMARKS
GOSHEN         PTCLDY    55  23  28 E15       30.03F
LOGANSPORT +   CLOUDY    57  37  47 E14       30.01S
ROCHESTER +    MOCLDY    59  27  29 E14       30.02F
SOUTH BEND     PTCLDY    61  23  23 E15G24    30.04F
WARSAW +       MOCLDY    55  25  30 E14       30.03F

$$

INZ006>009-017-018-025>027-190500-
NORTHEAST INDIANA

CITY           SKY/WX    TMP DP  RH WIND       PRES   REMARKS
ANGOLA *+      CLEAR     55  19  24 E9        30.07F
AUBURN +       MOCLDY    54  27  35 E14       30.06F
FORT WAYNE     CLOUDY    55  32  41 E17       30.04F
HUNTINGTON +   CLOUDY    55  28  35 E9        30.03F

$$

INZ028-029-035-036-043>045-051>053-190500-
WEST CENTRAL INDIANA

CITY           SKY/WX    TMP DP  RH WIND       PRES   REMARKS
CRAWFORDSVL +  PTCLDY    59  44  57 E3        29.94F
GREENCASTLE +  MOCLDY    61  43  51 E5        29.94F
LAFAYETTE      MOCLDY    62  50  64 NE12      29.95S
TERRE HAUTE    MOCLDY    60  49  66 E8        29.92F

$$

INZ030>032-037>040-046>048-054>057-064-065-190500-
CENTRAL INDIANA

CITY           SKY/WX    TMP DP  RH WIND       PRES   REMARKS
CP ATTERBURY + CLOUDY    64  46  52 E7        29.94F
FISHERS *+     MOCLDY    63  52  67 NE7       29.96S
FRANKFORT +    MOCLDY    63  52  68 NE12      29.98F
GREENWOOD *+   MOCLDY    66  45  45 E5        29.95F
INDIANAPOLIS   CLOUDY    68  46  45 E8        29.93F
-EAGLE CREEK   MOCLDY    66  47  50 E3        29.95S
KOKOMO *+      MOCLDY    57  39  51 E16       29.99F
MARION +       CLOUDY    58  36  44 E14G20    30.01F
MT COMFORT *+  CLOUDY    61  43  51 NE8       29.96S
SHELBYVILLE    CLOUDY    63  50  62 E8        29.94F
ZIONSVILLE +   MOCLDY    64  49  59 NE8       29.97S

$$

INZ033-034-041-042-049-050-058-059-190500-
EAST CENTRAL INDIANA

CITY           SKY/WX    TMP DP  RH WIND       PRES   REMARKS
MUNCIE         CLOUDY    59  44  57 E12       30.00F

$$

INZ060-061-067>069-081>083-085>088-190500-
SOUTHWEST INDIANA

CITY           SKY/WX    TMP DP  RH WIND       PRES   REMARKS
EVANSVILLE     CLOUDY    68  51  54 NE5       29.88F
HUNTINGBURG *+ PTCLDY    68  45  42 E9        29.89F
WASHINGTON +   MOCLDY    61  48  63 CALM      29.90F

$$

INZ062-063-066-070>080-084-089>092-190500-
SOUTH CENTRAL AND SOUTHEAST INDIANA

CITY           SKY/WX    TMP DP  RH WIND       PRES   REMARKS
BEDFORD +      MOCLDY    66  43  42 E5        29.93S
BLOOMINGTON    CLOUDY    65  48  54 E5        29.93S
MADISON *+     MOCLDY    68  41  37 E8        29.95F
NORTH VERNON + MOCLDY    64  46  52 E6        29.94F

$$



USA.gov is the U.S. government's official web portal to all federal, state and local government web resources and services.